Flag for Spain Weather past 2 weeks in Huelva, Spain

Now
50 °F

Fog.


Feels Like: 50 °F
Forecast: 47 / 63 °F
Wind: 2 mph from North

Location: Rota Airport

Current Time: Dec 21, 2014 at 2:39:12 AM

Latest Report: Dec 21, 2014 at 2:00 AM


Visibility: 0 mi

Pressure: 30.42 "Hg

Humidity: 100%

Dew point: 50 °F

Location of HuelvaLocation

Historic Weather in Huelva — Graph

°F

Huelva temperature yesterday

Maximum temperature yesterday: 50 °F (at 5:00 PM)
Minimum temperature yesterday: 45 °F (at 10:00 AM)
Average temperature yesterday: 48 °F

Past Weeks' High & Low Weather Summary

 TemperatureHumidityPressure
High63 °F (Dec 12, 2:00 PM)100% (Dec 6, 5:00 AM)30.48 "Hg (Dec 6, 5:00 AM)
Low39 °F (Dec 8, 5:00 AM)44% (Dec 7, 3:00 PM)29.74 "Hg (Dec 14, 9:00 AM)
Average51 °F85%30.25 "Hg
* Reported Dec 6 1:00 AM — Dec 21 1:00 AM, Huelva, Weather by CustomWeather, © 2014

Note: Actual official high and low records may vary slightly from our data, if they occured in-between our weather recording intervals... More about our weather records

Advertising

Huelva weather history for previous 24 hours

 ConditionsComfort  
Time TempWeatherWind HumidityBarometerVisibility
1:00 AM
Dec 21
50 °FFog.5 mph100%30.42 "Hg0 mi
12:00 AM46 °FFog.6 mph100%30.42 "Hg0 mi
11:00 PM
Dec 20
46 °FFog.2 mph100%30.42 "Hg0 mi
10:00 PM48 °FFog.2 mph100%30.42 "Hg0 mi
9:00 PM48 °FFog.1 mph100%30.42 "Hg0 mi
8:00 PM48 °FFog.No wind100%30.42 "Hg0 mi
7:00 PM50 °FFog.1 mph100%30.39 "Hg0 mi
6:00 PM50 °FFog.2 mph100%30.39 "Hg1 mi
5:00 PM50 °FFog.3 mph100%30.39 "Hg1 mi
4:00 PM48 °FFog.5 mph100%30.39 "Hg1 mi
3:00 PM48 °FFog.6 mph100%30.42 "Hg1 mi
2:00 PM48 °FFog.6 mph100%30.42 "Hg1 mi
1:00 PM48 °FFog.6 mph100%30.45 "Hg0 mi
12:00 PM46 °FFog.9 mph100%30.48 "Hg0 mi
11:00 AM46 °FFog.8 mph100%30.48 "Hg0 mi
10:00 AM45 °FFog.6 mph100%30.45 "Hg0 mi
9:00 AM46 °FFog.6 mph100%30.45 "Hg0 mi
8:00 AM46 °FFog.3 mph100%30.45 "Hg0 mi
7:00 AM46 °FFog.3 mph100%30.42 "Hg0 mi
6:00 AM48 °FFog.2 mph100%30.42 "Hg0 mi
5:00 AM48 °FFog.1 mph100%30.42 "Hg0 mi
4:00 AM48 °FFog.1 mph100%30.45 "Hg0 mi
3:00 AM48 °FFog.1 mph100%30.45 "Hg0 mi
2:00 AM48 °FFog.1 mph100%30.45 "Hg1 mi
Weather by CustomWeather, © 2014

See weather overviewHow to use our weather pages